Location: ?????
(31.8092°N, 35.2590°E)
Time: 13:23:31
(UTC+00:00)

N. Korean satellite - Pass Details

Date: 28 September 2021
Orbit: 450 x 495 km, 97.3° (Epoch: 19 October)

Event Time Altitude Azimuth Distance (km) Brightness Sun altitude
Rises 02:10:08 0° 27° (NNE) 2,543 10.7 -17.9°
Reaches altitude 10° 02:12:30 10° 43° (NE) 1,667 10.0 -17.4°
Maximum altitude 02:15:24 23° 97° (E) 1,081 9.2 -16.8°
Drops below altitude 10° 02:18:18 10° 151° (SSE) 1,675 9.6 -16.2°
Sets 02:20:41 0° 166° (SSE) 2,557 10.3 -15.7°
